Regional Weather Roundup
Issued by NWS Northern Indiana

Home | Current Version | Previous Version | Text Only | Print | Product List | Glossary Off
Versions: 1 2 3 4 5 6 7 8 9 10 11 12 13 14 15 16 17 18 19 20 21 22 23 24 25 26 27 28 29 30 31 32 33 34 35 36 37 38 39 40 41 42 43 44 45 46 47 48 49 50

000
ASUS43 KIWX 201510
RWRIWX

KIWX WEATHER ROUNDUP
NATIONAL WEATHER SERVICE NORTHERN INDIANA
1000 AM EST THU NOV 20 2014

NOTE: "FAIR" INDICATES FEW OR NO CLOUDS BELOW 12,000 FEET WITH NO
SIGNIFICANT WEATHER AND/OR OBSTRUCTIONS TO VISIBILITY.

* THESE STATIONS ARE NOT UNDER NWS QUALITY CONTROL. THEY ALSO MAY NOT
  REPORT WEATHER SUCH AS PRECIPITATION OR FOG.

INZ001>027-201600-
NORTHERN INDIANA

CITY           SKY/WX    TMP DP  RH WIND       PRES   REMARKS
GARY*          MOSUNNY   23  12  63 W12       30.08R WCI  12
VALPARAISO     SUNNY     21  11  65 W16       30.07R WCI   7
MICHIGAN CITY* CLOUDY    25  12  58 W15G24    30.05R WCI  12
LAPORTE*       SUNNY     24  15  69 W14G23    30.05R WCI  11
KNOX*          SUNNY     22  13  69 W18G26    30.07R WCI   7
SOUTH BEND     CLOUDY    21  13  71 SW21      30.02R WCI   5
ELKHART*       FLURRIES  21  12  68 SW14G21   30.02R WCI   8
GOSHEN         PTSUNNY   22  14  71 W20       30.02R WCI   7
MONTICELLO*    SUNNY     22  14  71 W14G21    30.12R WCI   9
LOGANSPORT*    SUNNY     23  14  68 W15G23    30.11R WCI  10
ROCHESTER*     SUNNY     27  16  63 W14G22    30.07S WCI  15
WARSAW*        SUNNY     23  14  68 W15G22    30.04S WCI  10
ANGOLA*        SUNNY     21  12  68 SW17G26   29.97S WCI   7
FORT WAYNE     MOSUNNY   22  13  68 W20       30.06R WCI   7
HUNTINGTON*    SUNNY     22  14  71 W14       30.07R WCI   9
PERU/GRISSOM   SUNNY     22  17  83 W20       30.09R WCI   6
MARION*        SUNNY     22  14  72 W18       30.11R WCI   7

$$
INZ028>050-201600-
CENTRAL INDIANA

CITY           SKY/WX    TMP DP  RH WIND       PRES   REMARKS
LAFAYETTE      SUNNY     23  13  65 W14       30.14R WCI  11
KOKOMO*        SUNNY     21  14  73 W18       30.11R WCI   6
MUNCIE*        SUNNY     23  13  65 W20       30.10R WCI   8
INDIANAPOLIS   MOSUNNY   24  14  65 W18       30.16R WCI  10

$$
MIZ043>046-050>051-056>058-064>065-071>073-077>080-201600-
SOUTHWEST LOWER MICHIGAN

CITY           SKY/WX    TMP DP  RH WIND       PRES   REMARKS
BATTLE CREEK   LGT SNOW  24  14  65 W17G26    29.93R WCI  11
BENTON HARBOR  CLOUDY    24  14  65 W25G33    30.00R WCI   8
COLDWATER*     PTSUNNY   23  17  77 W14       29.95S WCI  10
HILLSDALE*     LGT SNOW  22  15  74 W13G22    29.93R WCI  10
HOLLAND        FLURRIES  25  12  58 W18G29    29.94R WCI  11
GRAND RAPIDS   LGT SNOW  23  18  81 W12       29.90S WCI  12
KALAMAZOO      LGT SNOW  23  17  78 W18G31    29.95R VSB 1   WCI   9
STURGIS*       PTSUNNY   19  16  86 SW12      29.97S WCI   7
THREE RIVERS*  LGT SNOW  23  17  77 SW13      29.97S WCI  11

$$
OHZ001>008-015>018-024>025-201600-
NORTHWEST OHIO

CITY           SKY/WX    TMP DP  RH WIND       PRES   REMARKS
WAUSEON*       FAIR      21  14  73 SW20G25   29.98S WCI   6
DEFIANCE       MOSUNNY   22  14  71 SW13G23   30.03R WCI  10
FINDLAY        SUNNY     23  14  68 W17G24    30.03R WCI   9
TOLEDO EXPRESS MOSUNNY   22  13  68 SW20G29   29.99R WCI   7
TOLEDO METCALF MOSUNNY   23  14  68 SW24G30   30.01R WCI   7
LIMA           SUNNY     23  14  68 SW24      30.05R WCI   7

$$
AND FOR LAKE MICHIGAN COASTAL AND OPEN LAKE BUOY OBSERVATIONS

STATION/POSITION TEMP    WIND        PRES    VSBY  WAVE
                 AIR SEA DIR/SP/G                  HT/PER
                 (F)     (DEG/KT/KT) (MB)    (MI)  (FT/S)
CALUMET HARBOR    21     240/ 11/ 16 1016.8R
MICHIGAN CITY     23     230/ 26/ 31   N/A
SAINT JOSEPH      27     250/ 21/ 28 1016.9R
SOUTH LAKE BUOY   24 43  280/ 23/ 29 1015.9R         7/ 6

$$
&&



USA.gov is the U.S. government's official web portal to all federal, state and local government web resources and services.